Location: Antioch Baptist Church
(32.6696°N, 85.7327°W)
Time: 00:19:45
(UTC+00:00)

Cosmos 1570 Rocket - Pass Details

Date: 14 July 2020
Orbit: 763 x 788 km, 74.1° (Epoch: 12 August)

Event Time Altitude Azimuth Distance (km) Brightness Sun altitude
Rises 09:21:39 0° 346° (NNW) 3,244 7.6 -15.7°
Reaches altitude 10° 09:24:02 10° 349° (NNW) 2,318 6.8 -15.3°
Maximum altitude 09:29:17 70° 73° (ENE) 826 4.3 -14.4°
Drops below altitude 10° 09:34:32 10° 156° (SSE) 2,321 6.4 -13.6°
Sets 09:36:56 0° 159° (SSE) 3,249 7.1 -13.2°
